Simultaneous Nadir Overpasses (SNOs) Predictions

Prediction of SNOs between AQUA and METOP-A Satellite Orbit:

Table of predicted SNOs for the next 14.0 days since TLE Epoch: 1/6/2017
Index Date (AQUA) Time (AQUA) Lat,Lon (AQUA) SZA (AQUA ) Date (METOP-A) Time (METOP-A) Lat,Lon (METOP-A) SZA (METOP-A ) Distance(km) Time Diff (sec)
1 01/08/2017 04:53:56 -73.79, -79.28 83.97 01/08/2017 04:53:07 -73.77, -79.36 83.97 3.25 49
2 01/08/2017 05:43:25 73.87, 88.19 96.11 01/08/2017 05:43:45 73.86, 88.17 96.10 1.24 20
3 01/11/2017 00:28:11 -73.79, -12.83 84.37 01/11/2017 00:27:28 -73.78, -12.94 84.37 3.47 43
4 01/11/2017 01:17:40 73.87, 154.63 95.71 01/11/2017 01:18:06 73.86, 154.60 95.71 1.19 26
5 01/13/2017 20:02:26 -73.79, 53.60 84.82 01/13/2017 20:01:48 -73.80, 53.54 84.80 2.05 38
6 01/13/2017 20:51:55 73.87,-138.95 95.26 01/13/2017 20:52:26 73.89,-138.92 95.27 1.85 31
7 01/16/2017 15:36:40 -73.81, 120.01 85.32 01/16/2017 15:36:07 -73.81, 119.97 85.31 1.33 33
8 01/16/2017 16:26:09 73.89, -72.53 94.77 01/16/2017 16:26:45 73.89, -72.50 94.76 1.15 36
9 01/19/2017 11:10:55 -73.83,-173.59 85.86 01/19/2017 11:10:26 -73.83,-173.55 85.86 1.24 29
10 01/19/2017 12:00:23 73.86, -6.02 94.17 01/19/2017 12:01:05 73.87, -6.14 94.17 3.60 42




NCC Satellite Simultaneous Nadir Overpasses (SNOs) Prediction Service
